Location: Bohunice
(49.2117°N, 14.3803°E)
Time: 09:57:10
(UTC+00:00)

Daily predictions for brighter satellites

Satellite Brightness Start Highest point End
(mag) Time Altitude Azimuth Time Altitude Azimuth Time Altitude Azimuth
ATLAS 3B R/B 3.6 19:22:20 10° S 19:28:21 30° ESE 19:34:42 10° NE
Cosmos 1869 3.2 19:25:45 10° N 19:29:38 85° E 19:33:30 10° S
Cosmos 2082 Rocket 2.9 19:24:40 10° NNW 19:30:01 43° NE 19:35:20 10° ESE
Cosmos 1943 Rocket 3.0 19:31:38 10° SSE 19:36:26 30° ESE 19:41:15 10° NE
Resurs 01 Rocket 3.4 19:32:41 10° SSW 19:36:35 31° W 19:40:31 10° NNW
Cosmos 2278 Rocket 2.5 19:31:52 10° S 19:37:13 46° ESE 19:42:36 10° NE
Spot 2 Rocket 4.0 19:35:00 10° SE 19:39:49 45° ENE 19:44:40 10° N
Cosmos 1544 Rocket 3.5 19:41:12 10° N 19:45:33 89° ESE 19:49:50 10° S
USA 305 2.5 19:42:18 10° WNW 19:46:08 82° NNE 19:49:31 10° ESE
Terra 2.0 19:42:26 10° SSE 19:47:03 57° ENE 19:51:42 10° N
Cosmos 2218 Rocket 4.2 19:42:03 10° SSE 19:47:56 51° E 19:53:56 10° NNE
USA 215 3.4 19:42:04 10° ESE 19:48:39 84° NNE 19:55:15 10° NW
SPOT 3 Rocket 4.0 19:47:59 10° SE 19:52:59 50° ENE 19:58:02 10° N
IRS-1C Rocket 4.2 19:50:55 10° SSE 19:56:12 88° W 20:01:31 10° NNW
SPOT 5 3.4 19:52:02 10° S 19:57:07 67° W 20:02:24 10° NNW
Cosmos 2228 2.9 19:53:09 10° N 19:57:22 87° WSW 20:01:32 10° S
CZ-4C R/B 2.9 19:55:06 10° NNE 19:58:40 73° ESE 20:02:04 10° S
Aureole 2 4.5 19:56:48 10° S 20:00:00 56° ESE 20:03:37 10° NNE
MOS 1 Rocket 3.1 19:55:58 10° SSE 20:00:25 76° ENE 20:04:44 10° N
USA 290 2.2 19:58:26 10° S 20:01:31 56° ESE 20:04:38 10° NNE
SL-8 R/B 4.5 19:59:19 10° SSW 20:03:28 30° SSE 20:07:38 10° E
Meteor 1-27 4.2 19:58:20 10° N 20:03:59 84° ENE 20:09:33 10° SSE
NOSS 3-1 (C) 3.1 20:00:56 10° SW 20:05:52 87° NW 20:11:56 10° NE
Ariane Rocket 3.1 20:02:57 11° SSE 20:07:49 69° ENE 20:12:51 10° N
Cosmos 1812 3.9 20:05:03 10° NNE 20:08:01 24° ENE 20:10:11 14° ESE
Okean-O 3.9 20:04:24 10° SSW 20:08:30 38° W 20:12:38 10° NNW
Cosmos 1932 4.5 20:04:10 10° NW 20:10:25 82° NE 20:15:50 14° SE
Cosmos 2341 Rocket 4.1 20:04:49 10° S 20:11:09 89° WNW 20:17:35 10° N
Lacrosse 5 rocket 2.8 20:11:40 14° ESE 20:11:40 14° ESE 20:13:22 10° E
Cosmos 1437 Rocket 3.2 20:11:17 10° SSW 20:14:52 58° WNW 20:18:30 10° N
Cosmos 1726 Rocket 4.2 20:12:36 10° N 20:16:41 41° ENE 20:19:42 17° SE
CENTAUR R/B 4.3 20:10:36 10° NW 20:17:35 37° NNE 20:25:40 10° E
Cosmos 1606 Rocket 3.7 20:13:44 10° N 20:17:59 55° ENE 20:21:14 16° SSE
ISS -3.3 20:14:58 10° WNW 20:18:09 45° SSW 20:20:11 19° SE
Cosmos 1821 Rocket 4.3 20:12:22 10° SSE 20:18:28 53° E 20:24:39 10° NNE
Cosmos 1727 Rocket 4.2 20:12:45 10° N 20:19:00 60° ENE 20:24:17 15° SSE
Cosmos 2058 4.4 20:19:34 15° ESE 20:21:25 20° E 20:24:28 10° NE
BREEZE-M DEB (TANK) 1.7 20:20:21 10° WNW 20:23:18 48° SSW 20:24:15 25° SSE
COSMOS 2406 3.2 20:18:11 10° NNW 20:23:54 78° ENE 20:28:24 17° SSE
MetOp-A 3.8 20:36:55 21° SE 20:39:37 52° ENE 20:43:34 10° N
USA 307 2.6 20:36:00 10° WNW 20:39:52 62° SSW 20:41:51 25° SE
Cosmos 407 Rocket 4.0 20:35:00 10° NNW 20:40:02 48° ENE 20:43:32 19° SE
COSMOS 2455 4.3 20:34:49 10° NNW 20:40:07 30° NE 20:45:24 10° E
CZ-4C R/B 3.0 20:36:12 10° NW 20:43:11 82° NE 20:49:53 18° SE
Cosmos 1536 Rocket 4.3 20:39:34 10° SSW 20:43:46 51° WNW 20:48:01 10° N
Cosmos 2366 rocket 4.4 20:37:42 10° SSW 20:43:47 65° WNW 20:49:56 10° N
Cosmos 1140 Rocket 3.5 20:39:19 10° NNW 20:44:28 74° ENE 20:47:51 22° SSE
Helios 1B 4.5 20:40:57 10° NNE 20:45:18 86° ESE 20:49:18 12° SSW
ULPM Upper Stage 3.8 20:42:06 10° WNW 20:46:07 37° SW 20:48:42 19° S
NOSS 3-1 (A) 3.1 20:43:36 10° SW 20:48:34 89° NW 20:54:38 10° NE
ERS-1 Rocket 4.4 20:50:17 10° SSW 20:54:46 33° W 20:59:17 10° NNW
Cosmos-2242 4.3 20:55:15 10° N 20:58:53 27° ENE 21:00:39 20° ESE
Cosmos 2239 Rocket 4.5 20:54:12 17° S 20:59:10 72° E 21:05:26 10° NNE
Cosmos 2297 4.4 20:57:07 22° SSE 20:59:51 35° ESE 21:04:58 10° NE
Cosmos 1271 Rocket 3.9 21:01:33 24° ESE 21:02:16 25° E 21:05:25 10° NE
Cosmos 2058 Rocket 3.1 21:00:16 10° N 21:04:37 67° E 21:06:45 29° SSE
Landsat 4 4.3 21:05:30 23° SSW 21:07:16 44° W 21:10:35 10° NNW
Cosmos 1000 Rocket 4.5 21:03:19 10° N 21:09:30 86° W 21:13:40 22° S
Gbstr 26 Del rocket 3.5 21:05:24 10° WNW 21:10:02 63° SSW 21:13:13 25° SE
Gblst 52 Del rocket 4.3 21:04:40 10° SW 21:10:15 51° SSE 21:15:34 10° ENE
Lacrosse 5 3.2 21:06:51 10° NW 21:11:37 39° NNE 21:16:22 10° E
Cosmos 2123 Rocket 4.1 21:07:06 10° N 21:13:25 72° ENE 21:17:18 25° SSE
Cosmos 489 Rocket 4.4 21:08:31 14° S 21:13:48 72° ESE 21:20:02 10° NNE
Cosmos 2082 Rocket 3.2 21:08:55 10° NW 21:14:02 37° WSW 21:17:46 17° SSW
Cosmos 2369 Rocket 2.8 21:15:09 27° SSE 21:17:18 37° ESE 21:22:25 10° NE
USA 305 4.0 21:15:08 10° W 21:17:50 20° SW 21:18:10 20° SW
ATLAS 3B R/B 3.1 21:11:13 10° SW 21:18:27 77° NW 21:26:13 10° NE
USA 229 DEB 3.6 21:13:01 12° SSW 21:18:39 56° ESE 21:25:13 10° NE
USA 229 3.6 21:13:13 12° SSW 21:18:45 56° ESE 21:25:19 10° NE
Cosmos 1943 Rocket 3.0 21:14:24 10° SW 21:19:54 52° NW 21:25:25 10° NNE
Cosmos 2278 Rocket 3.7 21:16:13 10° WSW 21:21:26 37° NW 21:26:40 10° NNE
Terra 3.9 21:21:33 10° SW 21:24:59 20° W 21:28:27 10° NW
Cosmos 1782 3.0 21:22:13 10° N 21:25:57 52° ENE 21:27:00 38° SE
Timation 1 Rocket 4.3 21:22:35 10° NNW 21:28:38 82° WSW 21:31:51 29° SSE
Lacrosse 4 Rocket 2.0 21:28:41 33° ESE 21:28:53 33° ESE 21:32:37 10° NE
USA 215 4.0 21:28:45 23° S 21:32:04 37° SW 21:38:05 10° WNW
Cosmos 1934 Rocket 3.9 21:28:42 24° S 21:32:38 79° E 21:38:47 10° NNE
SeaSat 1 4.0 21:31:24 12° E 21:35:03 28° NE 21:39:13 10° NNW
Cosmos 1862 4.3 21:35:26 28° ESE 21:35:51 29° E 21:39:13 10° NNE
Cosmos 2251 Rocket 3.6 21:30:44 10° NNW 21:36:04 75° WSW 21:38:33 32° S
Cosmos 1515 3.5 21:34:20 10° N 21:37:47 66° ENE 21:38:23 53° SE
Cosmos 1758 Rocket 4.1 21:37:32 35° SE 21:38:32 41° E 21:42:36 10° NNE
Cosmos 1626 Rocket 3.6 21:37:20 40° SSE 21:38:39 60° E 21:42:55 10° NNE
Cosmos 1461 3.2 21:35:32 10° NNW 21:39:17 51° NE 21:40:41 32° ESE
H-2A R/B 3.2 21:38:19 30° ESE 21:39:23 37° ENE 21:42:53 10° N
Cosmos 1933 3.5 21:36:51 10° N 21:40:44 55° ENE 21:41:43 42° SE
Cosmos 2221 4.1 21:37:20 10° NNE 21:40:45 23° ENE 21:42:15 19° E
ARIANE 5 R/B 2.6 21:39:29 38° SSE 21:41:13 89° E 21:45:44 10° NNW
Cosmos 1238 Rocket 3.0 21:37:48 10° NNW 21:41:45 78° W 21:43:23 38° S
Cosmos 2056 Rocket 3.9 21:40:47 33° SSE 21:42:26 43° ESE 21:47:20 10° NE
Cosmos 1812 4.3 21:39:41 10° NW 21:42:39 25° W 21:44:11 19° SW
SL-8 R/B 3.6 21:40:41 10° WSW 21:45:27 70° SSE 21:50:15 10° E
Lacrosse 5 rocket 0.9 21:46:16 18° SW 21:48:56 85° SE 21:52:51 10° NE
ALOS 2 3.3 21:51:52 32° ESE 21:53:22 45° ENE 21:57:34 10° N
Cosmos 1190 Rocket 3.9 21:48:08 10° NNW 21:53:22 83° WSW 21:55:26 38° SSE
Spot 4 4.0 21:52:14 36° SE 21:54:06 65° ENE 21:58:55 10° N
BREEZE-M DEB (TANK) 3.7 21:51:19 10° W 21:54:14 59° SSW 21:58:36 20° ESE
Meteor 2-2 Rocket 4.3 21:49:13 10° NNW 21:55:03 90° WNW 21:57:47 34° S
Cosmos 1378 2.5 21:52:37 10° N 21:55:51 89° SE 21:55:59 81° S
SL-27 R/B 2.7 21:54:50 10° N 21:57:18 43° NE 21:57:18 43° NE
Cosmos 2058 4.0 21:55:22 21° SW 21:57:41 39° WNW 22:01:33 10° N
Cosmos 676 Rocket 4.0 21:53:19 10° NNW 21:58:31 70° ENE 22:00:37 36° SE
Geosat 4.4 21:56:15 10° NNE 22:01:13 61° NW 22:05:42 12° SW
Okean 1-7 Rocket 3.6 22:02:48 47° SSE 22:03:52 65° E 22:08:14 10° NNE
Cosmos 1656 Rocket 3.7 22:01:48 20° SW 22:05:40 77° WNW 22:11:17 10° NNE
CENTAUR R/B 3.3 22:01:19 10° NW 22:09:27 81° NE 22:16:06 22° SE
Cosmos 1666 2.6 22:14:56 57° E 22:14:56 57° E 22:18:12 10° NNE
Cosmos 2285 Rocket 4.2 22:12:04 10° NNW 22:18:25 63° WSW 22:21:12 34° S
Cosmos 482 Debris 4.4 22:14:49 10° WNW 22:19:30 70° NNE 22:21:00 33° E
H-2A R/B 3.8 22:17:35 10° NE 22:20:19 17° E 22:20:29 17° E
Cosmos 1500 2.7 22:24:14 81° WSW 22:24:18 82° W 22:27:43 10° N
Cosmos 1605 Rocket 4.1 22:22:38 30° SSW 22:25:51 72° WNW 22:32:03 10° N
COSMOS 2455 2.8 22:20:35 10° NW 22:26:38 75° WSW 22:29:02 38° SSE
Iridium 4 Rocket 4.0 22:22:18 10° N 22:28:08 62° E 22:30:23 37° SSE
CZ-4C R/B 4.0 22:25:02 10° WNW 22:31:27 32° WSW 22:34:57 24° SSW
USA 281 3.6 22:31:52 23° SE 22:35:59 60° ENE 22:42:26 10° NNW
Cosmos-2242 4.2 22:32:28 10° NNW 22:36:11 31° W 22:37:13 27° WSW
Cosmos 1371 Rocket 4.2 22:33:40 31° SW 22:36:18 72° WNW 22:41:39 10° NNE
Cosmos 1271 Rocket 4.3 22:36:00 21° WSW 22:37:30 28° WNW 22:40:48 10° N
ATLAS 5 CENTAUR R/B 4.2 22:35:07 10° NNW 22:38:26 20° NNE 22:42:15 10° ENE
Exosat Rocket 3.9 22:35:45 10° NW 22:40:48 51° WSW 22:42:07 40° SSW
Cosmos 2100 Rocket 4.1 22:38:27 37° SSE 22:40:50 61° E 22:46:59 10° NNE
Cosmos 1833 4.4 22:36:42 10° NW 22:42:19 60° WSW 22:44:09 40° S
Cosmos 1825 Rocket 3.4 22:44:10 59° S 22:44:57 81° E 22:49:16 10° NNE
Cosmos 44 Rocket 3.3 22:46:38 47° S 22:47:57 68° SE 22:52:57 10° NE
Meteor 2-15 4.4 22:46:35 39° S 22:48:57 74° E 22:55:05 10° NNE
Cosmos 2173 Rocket 4.0 22:49:49 39° SSE 22:52:09 70° E 22:58:15 10° NNE
SJ 16-02 2.4 22:48:56 10° N 22:53:04 39° ENE 22:54:45 28° ESE
Cosmos 1602 3.4 22:53:26 80° ESE 22:53:29 81° E 22:57:09 10° NNE
Cosmos 1802 Rocket 4.3 22:52:35 35° SSE 22:55:01 55° E 23:01:03 10° NNE
Lacrosse 5 1.8 22:49:57 10° NW 22:55:02 89° SW 22:57:14 35° SE
Cosmos 1110 Rocket 4.1 22:58:29 45° SSE 22:59:50 60° ESE 23:05:01 10° NNE
Meteor 2-16 Rocket 4.4 22:54:08 10° N 23:00:18 82° E 23:02:47 39° SSE
Cosmos 2369 Rocket 3.1 22:56:53 15° WSW 23:01:15 43° NW 23:06:38 10° NNE
Gblst 52 Del rocket 4.2 22:56:13 10° W 23:01:50 76° NNW 23:07:22 10° ENE
Cosmos 1953 Rocket 3.5 23:03:19 57° S 23:04:10 79° E 23:08:39 10° NNE
NOSS 3-2 (A) 4.0 22:57:53 10° NW 23:05:14 79° SW 23:10:30 26° SSE
Cosmos 2227 Rocket 4.2 23:01:55 10° NNW 23:06:30 24° NE 23:11:04 10° E
Lacrosse 4 Rocket 2.9 23:04:32 16° WSW 23:07:08 32° NW 23:10:55 10° NNE
SeaSat 1 2.5 23:11:05 47° SSW 23:12:13 60° WSW 23:17:06 10° NW
Meteor 2-6 Rocket 4.5 23:08:05 10° NNW 23:13:59 65° W 23:16:08 39° SSW
H-2A R/B 4.0 23:14:16 20° W 23:14:26 20° W 23:17:17 10° NW
Cosmos 1850 Rocket 4.0 23:10:57 10° NNW 23:16:10 69° WSW 23:17:37 46° S
Cosmos 2151 3.0 23:15:32 58° SW 23:16:16 74° W 23:20:31 10° N
Meteor 1-10 Rocket 4.3 23:11:16 10° N 23:17:15 84° ENE 23:19:38 39° SSE
PSLV R/B 3.8 23:13:11 10° N 23:17:35 64° WNW 23:18:48 44° SW
Cosmos 2221 3.2 23:14:13 10° NNW 23:18:12 39° W 23:18:49 37° WSW
Meteor 1-27 Rocket 4.1 23:13:18 10° N 23:19:02 58° ENE 23:21:41 31° SE
Tsikada Rocket 4.3 23:13:07 10° N 23:19:17 60° ENE 23:22:18 30° SE
Cosmos 2297 Rocket 3.0 23:16:19 10° NNW 23:21:49 47° NE 23:26:06 16° ESE
Cosmos 1452 Rocket 3.4 23:21:54 45° SSW 23:23:35 90° N 23:28:53 10° NNE
NOSS 2-1 (C) 2.9 23:24:31 67° N 23:24:31 67° N 23:27:19 10° NE
Cosmos 2061 Rocket 4.3 23:22:42 34° SSE 23:25:15 58° E 23:31:21 10° NNE
Cosmos 2344 3.9 23:22:54 33° SSE 23:25:43 46° ESE 23:32:37 10° NE
Lacrosse 5 rocket 3.0 23:24:05 10° W 23:27:34 31° NNW 23:31:11 10° NE
SL-8 R/B 3.5 23:23:01 10° W 23:27:50 81° S 23:32:39 10° E
ALOS 2 4.2 23:29:16 21° WSW 23:29:55 22° W 23:33:22 10° NW
ATLAS CENTAUR R/B 3.3 23:28:31 38° SSE 23:30:00 44° SE 23:37:56 10° ENE
Okean 1 3.1 23:26:14 10° N 23:30:02 75° E 23:30:23 68° SE
Cosmos 1331 Rocket 3.9 23:31:59 43° SSW 23:33:43 81° WNW 23:38:54 10° NNE
Cosmos 1340 Rocket 3.5 23:34:48 10° NNW 23:38:26 37° W 23:38:36 37° W
USA 59 Rocket -0.1 23:42:38 46° WNW 23:42:48 47° NW 23:45:43 10° NNE
NOSS 3-2 (C) 4.0 23:35:41 10° NW 23:43:02 86° SW 23:50:51 14° SE
Resurs 1-4 Rocket 4.3 23:41:43 10° NE 23:44:50 16° E 23:47:56 10° ESE
Meteor 2-4 Rocket 4.4 23:42:20 10° N 23:47:34 46° ENE 23:50:57 21° SE
Cosmos 1842 Rocket 4.0 23:46:44 10° NNW 23:51:01 46° W 23:51:48 41° SW
Cosmos 1076 Rocket 4.1 23:52:47 39° WSW 23:53:50 47° WNW 23:58:04 10° N
Cosmos 1626 2.9 23:51:58 10° N 23:54:53 34° ENE 23:55:17 32° E
